IW0HP-3 Weather Reports


Display with metric or nautical units.
time (UTC)temp
F
wind
direction
speed
MPH
gust
MPH
rain 1hr
in
rain 24hr
in
rain mn
in
humidity
%
barometer
mb
20260507072643 65 0.0 0.0 0.00 0.00 0.00 65 1015.1
20260507070637 65 0.0 0.0 0.00 0.00 0.00 67 1015.2
20260507064632 64 0.0 0.0 0.00 0.00 0.00 69 1015.1
20260507062627 63 0.0 0.0 0.00 0.00 0.00 71 1015.0
20260507060623 63 0.0 0.0 0.00 0.00 0.00 70 1014.8
20260507054616 62 0.0 0.0 0.00 0.00 0.00 75 1014.9
20260507052611 61 0.0 0.0 0.00 0.00 0.00 78 1014.9
20260507050607 60 0.0 0.0 0.00 0.00 0.00 79 1014.9
20260507044601 60 0.0 0.0 0.00 0.00 0.00 79 1014.7
20260507040550 60 0.0 0.0 0.00 0.00 0.00 79 1014.7
20260507034545 60 0.0 0.0 0.00 0.00 0.00 81 1014.6
20260507032540 60 0.0 0.0 0.00 0.00 0.00 79 1014.7
20260507030534 60 0.0 0.0 0.00 0.00 0.00 80 1014.5
20260507024529 60 0.0 0.0 0.00 0.00 0.00 80 1014.6
20260507022523 60 0.0 0.0 0.00 0.00 0.00 80 1014.8
20260507020518 60 0.0 0.0 0.00 0.00 0.00 81 1014.7
20260507014514 60 0.0 0.0 0.00 0.00 0.00 81 1014.7
20260507012508 60 0.0 0.0 0.00 0.00 0.00 80 1014.5
20260507010502 60 0.0 0.0 0.00 0.00 0.00 79 1014.5
20260507004457 61 0.0 0.0 0.00 0.00 0.00 78 1014.7
20260507002452 61 0.0 0.0 0.00 0.00 0.00 75 1014.8
20260507000446 62 0.0 0.0 0.00 0.00 0.00 72 1014.5
20260506234441 62 0.0 0.0 0.00 0.00 0.00 72 1014.5
20260506232436 63 0.0 0.0 0.00 0.00 0.00 74 1014.5
20260506230431 63 0.0 0.0 0.00 0.00 0.00 75 1014.4
20260506224425 63 0.0 0.0 0.00 0.00 0.00 73 1014.3
20260506222420 63 0.0 0.0 0.00 0.00 0.00 73 1014.3
20260506220416 64 0.0 0.0 0.00 0.00 0.00 71 1014.2
20260506214410 64 0.0 0.0 0.00 0.00 0.00 69 1014.3
20260506212405 64 0.0 0.0 0.00 0.00 0.00 68 1014.4
20260506210400 64 0.0 0.0 0.00 0.00 0.00 64 1014.4
20260506204355 64 0.0 0.0 0.00 0.00 0.00 63 1014.3
20260506202349 65 0.0 0.0 0.00 0.00 0.00 61 1014.4
20260506200344 65 0.0 0.0 0.00 0.00 0.00 59 1014.3
20260506194339 65 0.0 0.0 0.00 0.00 0.00 57 1014.3
20260506192334 65 0.0 0.0 0.00 0.00 0.00 60 1014.1
20260506190328 65 0.0 0.0 0.00 0.00 0.00 62 1013.9
20260506184322 65 0.0 0.0 0.00 0.00 0.00 63 1013.7
20260506182318 65 0.0 0.0 0.00 0.00 0.00 63 1013.6
20260506180313 66 0.0 0.0 0.00 0.00 0.00 61 1013.6
20260506174307 66 0.0 0.0 0.00 0.00 0.00 65 1013.4
20260506172301 66 0.0 0.0 0.00 0.00 0.00 66 1013.4
20260506170257 66 0.0 0.0 0.00 0.00 0.00 64 1013.5
20260506164251 67 0.0 0.0 0.00 0.00 0.00 60 1013.3
20260506162246 67 0.0 0.0 0.00 0.00 0.00 61 1013.4
20260506160242 67 0.0 0.0 0.00 0.00 0.00 59 1013.3
20260506152231 68 0.0 0.0 0.00 0.00 0.00 57 1013.4
20260506150226 69 0.0 0.0 0.00 0.00 0.00 56 1013.3
20260506144220 69 0.0 0.0 0.00 0.00 0.00 54 1013.5
20260506142215 69 0.0 0.0 0.00 0.00 0.00 53 1013.5
20260506140209 70 0.0 0.0 0.00 0.00 0.00 53 1013.3
20260506134204 70 0.0 0.0 0.00 0.00 0.00 53 1013.3
20260506132158 71 0.0 0.0 0.00 0.00 0.00 51 1013.4
20260506130152 71 0.0 0.0 0.00 0.00 0.00 50 1013.4
20260506120136 72 0.0 0.0 0.00 0.00 0.00 46 1013.6
20260506114131 72 0.0 0.0 0.00 0.00 0.00 45 1013.7
20260506112127 72 0.0 0.0 0.00 0.00 0.00 43 1013.9
20260506110121 71 0.0 0.0 0.00 0.00 0.00 43 1014.0
20260506104116 70 0.0 0.0 0.00 0.00 0.00 43 1014.3
20260506102110 70 0.0 0.0 0.00 0.00 0.00 47 1014.2
20260506100105 69 0.0 0.0 0.00 0.00 0.00 47 1014.2
20260506094100 69 0.0 0.0 0.00 0.00 0.00 52 1014.0
20260506092054 68 0.0 0.0 0.00 0.00 0.00 55 1013.9
20260506090050 67 0.0 0.0 0.00 0.00 0.00 57 1013.9
20260506084044 66 0.0 0.0 0.00 0.00 0.00 61 1013.7
20260506082038 66 0.0 0.0 0.00 0.00 0.00 61 1013.7